Regional Weather Roundup
Issued by NWS

Home | Current Version | Previous Version | Graphics & Text | Print | Product List | Glossary On
Versions: 1 2 3 4 5 6 7 8 9 10 11 12 13 14 15 16 17 18 19 20 21 22 23 24 25 26 27
000
ASUS45 KSLC 290910
RWRUT

UTAH REGIONAL WEATHER ROUNDUP
NATIONAL WEATHER SERVICE SALT LAKE CITY UT
300 AM MDT FRI APR 29 2016

UTZ001>011-023>025-291000-

NORTHERN UTAH

CITY           SKY/WX    TMP DP  RH WIND       PRES   REMARKS
BRIGHAM CITY   PTCLDY    46  27  46 E14G25    29.87F
HILL AFB       MOCLDY    43  28  55 E14       29.85F
LOGAN          PTCLDY    45  29  53 SE16G23   29.88F
OGDEN          PTCLDY    45  29  53 E14G24    29.84F
PROVO AIRPORT  CLOUDY    45  34  65 NW8       29.84S
SALT LAKE CITY CLOUDY    45  34  65 N6        29.85R
VERNAL         MOCLDY    41  29  62 N8        29.85F
WENDOVER       CLEAR     48  30  49 CALM      29.87S
HEBER CITY     MIX PCPN  37  32  81 CALM      29.86F

$$

UTZ012>022-026-027-291000-

SOUTHERN/CENTRAL UTAH

CITY           SKY/WX    TMP DP  RH WIND       PRES   REMARKS
BLANDING       CLOUDY    36  33  88 N8        29.90F WCI  30
BRYCE CANYON   CLOUDY    33  30  88 NW7       29.86S WCI  27
CEDAR CITY     LGT RAIN  41  38  89 E3        29.85F
DELTA          CLOUDY    43  41  93 CALM      29.85F
MILFORD        CLOUDY    43  41  93 S5        29.85S
MOAB/CYNLANDS  PTCLDY    40  38  93 W7        29.81S
PRICE          LGT RAIN  37  34  89 NW8       29.83F WCI  31
ST GEORGE      CLOUDY    48  43  81 S5        29.85F

$$

REGIONAL REPORTS     COLORADO/ARIZONA

CITY           SKY/WX    TMP DP  RH WIND       PRES   REMARKS
CRAIG, CO      CLOUDY    38  34  85 NE3       29.88F
GRAND JUNCTION CLOUDY    41  38  89 N7        29.81S
RIFLE          CLOUDY    41  36  82 CALM      29.83S
MONTROSE       CLOUDY    44  31  60 SE10      29.84S
CORTEZ         CLOUDY    33  30  88 E3        29.83F
PAGE, AZ       CLOUDY    46  43  89 CALM      29.82S
GRAND CANYON   LGT RAIN  39  36  89 CALM      29.87F
KINGMAN        CLEAR     45  42  89 E5        29.86S
FLAGSTAFF      CLOUDY    35  34  96 SW6       29.87F WCI  30

$$

REGIONAL REPORTS    NEVADA/IDAHO/WYOMING

CITY           SKY/WX    TMP DP  RH WIND       PRES   REMARKS
LAS VEGAS, NV  MOCLDY    56  48  74 S5        29.80F
ELY            CLOUDY    31  30  96 W5        29.93S WCI  26
ELKO           MOCLDY    41  36  82 SW5       29.93F
POCATELLO, ID  CLOUDY    41  34  76 SE6       29.87F
BURLEY         LGT RAIN  46  39  76 SE3       29.86F
EVANSTON, WY   FLURRIES  31  26  82 E17G23    29.90S WCI  19
ROCK SPRINGS   CLOUDY    31  26  82 NE15      29.94S WCI  20

$$




USA.gov is the U.S. government's official web portal to all federal, state and local government web resources and services.